This demonstration page uses our WeatherBlox Daily Observations layout. Learn more.

Left ArrowRight Arrow

Hourly Observations for March 18, 2019

Temp ( °F °C ) Dew Point ( °F °C ) Humidity (%) Winds ( mph kmh ) Pressure ( in mb ) Visibility ( mi km ) Precip ( " mm )
12:53 am 00:53 Clear 50 10 41 5 71 71 Calm 30.03 1017 10 16 0.00 0.00
1:53 am 01:53 Clear 49 9.4 41 5 74 74 N 3 6 30.02 1017 10 16 0.00 0.00
2:53 am 02:53 Clear 46 7.8 40 4.4 79 79 Calm 30.01 1016 10 16 0.00 0.00
3:53 am 03:53 Clear 46 7.8 41 5 83 83 Calm 30.00 1016 10 16 0.00 0.00
4:53 am 04:53 Clear 43 6.1 39 3.9 86 86 Calm 29.99 1016 10 16 0.00 0.00
5:53 am 05:53 Clear 43 6.1 38 3.3 82 82 Calm 29.99 1016 10 16 0.00 0.00
6:53 am 06:53 Clear 42 5.6 38 3.3 85 85 Calm 30.01 1016 10 16 0.00 0.00
7:53 am 07:53 Sunny 42 5.6 39 3.9 89 89 Calm 30.02 1017 10 16 0.00 0.00
8:53 am 08:53 Sunny 49 9.4 41 5 74 74 Calm 30.02 1017 10 16 0.00 0.00
9:53 am 09:53 Sunny 57 13.9 42 5.6 58 58 Calm 30.01 1016 10 16 0.00 0.00
10:53 am 10:53 Sunny 64 17.8 40 4.4 41 41 NE 3 6 30.00 1016 10 16 0.00 0.00
11:53 am 11:53 Sunny 67 19.4 41 5 39 39 SE 3 6 29.99 1016 10 16 0.00 0.00
12:53 pm 12:53 Sunny 71 21.7 39 3.9 31 31 Calm 29.97 1015 10 16 0.00 0.00
1:53 pm 13:53 Sunny 73 22.8 38 3.3 28 28 E 5 7 29.96 1015 10 16 0.00 0.00
2:53 pm 14:53 Sunny 74 23.3 38 3.3 27 27 Calm 29.93 1014 10 16 0.00 0.00
3:53 pm 15:53 Sunny 75 23.9 38 3.3 26 26 SSE 9 15 29.92 1013 10 16 0.00 0.00
4:53 pm 16:53 Sunny 76 24.4 33 0.6 21 21 S 7 11 29.91 1013 10 16 0.00 0.00
5:53 pm 17:53 Sunny 75 23.9 37 2.8 25 25 S 8 13 29.91 1013 10 16 0.00 0.00
6:53 pm 18:53 Sunny 70 21.1 42 5.6 37 37 SSE 6 9 29.91 1013 10 16 0.00 0.00
7:53 pm 19:53 Clear 66 18.9 40 4.4 39 39 Calm 29.92 1013 10 16 0.00 0.00
8:53 pm 20:53 Clear 62 16.7 40 4.4 44 44 N 3 6 29.92 1013 10 16 0.00 0.00
9:53 pm 21:53 Clear 57 13.9 41 5 55 55 N 5 7 29.93 1014 10 16 0.00 0.00
10:53 pm 22:53 Clear 56 13.3 39 3.9 53 53 NNW 7 11 29.93 1014 10 16 0.00 0.00
11:53 pm 23:53 Clear 56 13.3 39 3.9 53 53 Calm 29.93 1014 10 16 0.00 0.00

Powered by AerisWeather